Wind_Speed
46 43 41 35 32 27 23 19 14 13 11 9 7 6 4 3 5 3 4 5 1 1 2 6 3 3 2 2 2 4 2 2 3 5 3 3 3 3 4 4 4 4 6 5 5 5 5 19 8 9 10 18 19 19
50 46 45 37 35 30 25 20 16 13 12 9 8 7 5 3 4 5 3 6 5 3 1 3 6 8 5 5 2 0 1 1 2 2 1 2 3 2 4 5 2 1 2 4 3 4 11 11 9 10 16 18 17 19
54 50 46 39 37 33 28 22 19 16 13 10 8 7 5 4 5 7 5 7 2 1 2 1 1 1 2 9 9 2 2 1 1 1 1 2 4 2 4 4 4 2 1 3 6 3 11 17 3 16 18 19 19 18
57 54 49 43 40 35 29 24 20 16 13 11 9 7 6 5 6 5 6 7 4 3 1 1 2 1 3 0 5 8 1 4 2 0 2 2 3 2 2 3 3 2 3 3 7 5 16 4 17 18 21 20 19 18
60 56 48 47 41 35 29 24 20 16 14 12 9 8 6 5 7 6 6 5 3 1 1 0 3 2 3 1 3 4 4 3 2 1 2 2 1 2 1 2 3 0 2 3 3 11 9 16 18 22 19 19 17 14
57 54 49 46 41 34 30 24 20 17 14 11 9 8 7 10 10 4 2 2 3 1 1 1 2 2 4 6 1 2 3 3 2 2 2 1 0 1 2 3 2 3 5 8 6 12 16 20 18 19 16 17 18 14
56 52 51 44 37 34 28 25 21 17 13 12 10 9 13 12 6 4 1 3 5 2 1 1 1 2 6 2 1 2 2 1 0 1 2 1 2 1 2 3 4 6 8 10 10 9 9 7 11 23 19 17 14 14
53 53 49 42 37 32 29 25 21 16 14 12 12 16 15 10 11 5 7 5 3 4 3 1 1 1 7 2 1 2 2 2 1 1 1 1 2 1 3 2 5 6 10 6 3 9 13 17 18 13 15 14 9 10
54 51 44 39 36 33 28 26 20 17 15 16 21 22 14 2 2 4 6 6 4 3 2 1 0 1 6 2 1 1 1 2 1 1 0 2 1 4 1 3 6 6 5 9 13 11 8 8 9 9 10 11 10 9
54 47 41 38 35 31 29 23 21 19 21 29 18 4 2 4 10 6 2 2 5 6 3 2 0 1 3 3 1 2 1 1 2 1 2 2 3 1 3 4 6 7 8 7 7 7 9 9 8 8 7 9 10 11
52 46 41 38 33 32 26 24 23 28 26 8 4 2 6 10 4 3 2 1 2 1 2 1 1 2 1 2 2 0 2 1 2 1 2 1 2 2 1 4 5 7 8 8 8 9 8 6 6 7 8 11 12 12
49 45 41 36 34 30 27 25 30 21 10 10 11 9 6 3 2 2 1 1 1 1 2 1 0 2 2 1 1 1 2 0 2 1 2 2 2 2 3 3 5 7 8 7 6 6 6 7 8 7 8 10 11 12
46 44 37 35 32 28 26 28 27 13 19 15 4 3 1 1 2 4 3 1 2 3 2 0 1 1 2 2 2 1 2 2 0 2 3 2 0 2 3 3 3 7 8 7 7 7 7 8 9 9 10 11 10 12
45 39 36 31 28 26 24 26 23 22 4 2 4 3 1 2 2 2 2 2 2 3 3 1 1 0 1 1 2 2 0 1 2 2 3 1 3 2 3 3 1 3 6 7 7 7 7 7 8 9 10 10 10 13
40 36 31 28 26 24 26 24 21 9 3 2 2 3 3 3 2 2 1 2 2 3 2 2 1 1 1 2 1 2 2 3 4 3 1 2 3 2 2 1 1 3 4 5 6 6 6 6 7 10 11 12 13 13
39 32 26 27 25 27 27 23 13 2 4 2 3 4 2 2 2 2 2 2 4 3 2 2 1 1 2 2 2 5 2 4 1 2 1 3 3 2 2 2 1 3 3 3 4 4 4 6 7 7 10 13 13 14
29 14 32 31 32 26 24 9 4 4 3 3 1 1 2 2 3 3 4 3 7 3 2 2 2 3 1 1 3 4 4 1 1 2 3 3 4 3 3 2 2 3 3 3 2 4 5 5 6 8 10 10 10 12
27 37 35 34 31 23 6 3 4 2 3 1 2 3 3 2 4 3 2 7 4 3 3 3 2 2 4 3 3 2 3 1 2 3 3 4 4 3 3 3 2 3 3 4 5 5 4 5 5 5 5 5 7 9
42 39 34 29 21 6 4 2 3 3 1 1 1 1 2 3 3 4 6 7 3 4 4 2 2 4 4 4 3 2 2 3 3 3 3 4 3 4 4 3 3 4 4 4 4 3 3 5 4 3 3 4 6 7
36 30 23 21 7 4 3 2 3 3 3 2 2 2 2 2 3 3 5 5 4 2 1 3 5 3 4 2 4 2 2 6 4 3 3 5 5 5 5 5 4 5 5 4 4 3 2 2 3 5 4 4 5 6
30 19 19 10 4 8 6 1 3 1 3 2 1 1 2 1 1 2 2 5 1 3 4 5 4 3 7 4 4 4 4 8 6 4 2 4 7 7 6 6 6 5 5 5 5 5 3 2 2 3 4 5 7 8
16 15 7 4 5 4 4 5 3 2 2 2 2 1 2 2 2 2 1 2 3 4 4 3 2 3 6 5 7 9 8 8 9 7 5 7 8 8 8 8 8 6 7 6 5 5 4 3 3 4 5 5 6 6
16 7 4 4 5 5 1 2 2 3 3 2 1 1 1 1 1 1 2 3 4 6 6 7 6 5 5 5 6 6 7 9 9 8 7 9 7 7 8 9 8 10 8 7 7 7 5 4 3 5 6 6 7 8
11 5 4 3 3 3 1 3 2 2 2 2 2 1 1 2 1 1 3 3 3 2 5 7 7 4 2 3 5 6 8 9 9 8 9 10 8 7 8 9 10 10 8 9 9 7 6 6 4 5 7 7 8 8
5 4 3 3 2 4 3 2 2 2 2 1 2 1 1 0 1 2 3 3 2 2 4 7 7 7 3 2 4 7 8 10 10 8 11 12 10 9 7 7 8 8 9 10 9 8 7 7 6 6 7 8 9 9
4 3 2 2 0 3 4 3 4 4 3 2 4 0 0 2 1 5 3 2 2 2 4 7 7 5 6 8 5 7 9 11 10 7 10 15 16 14 11 9 7 9 12 11 11 11 9 8 9 9 8 7 8 10
3 1 1 1 2 3 3 2 2 2 3 4 3 3 2 2 5 3 2 3 2 3 5 12 15 13 8 8 10 7 8 12 9 7 5 13 14 13 12 12 12 7 12 12 12 11 11 10 10 10 10 9 8 9
2 1 4 2 2 1 4 2 3 4 3 2 3 3 5 6 4 2 3 2 4 4 5 7 11 11 10 8 10 10 10 12 9 6 5 10 12 13 11 10 7 7 11 10 10 10 8 8 9 10 11 10 9 8
2 1 2 3 2 2 2 4 4 2 1 3 3 3 4 3 3 2 2 4 4 6 5 7 10 11 11 8 10 14 14 17 14 5 6 4 6 14 15 11 11 12 11 11 9 6 7 8 8 9 9 9 9 8
1 1 3 2 3 3 2 2 2 1 1 1 2 3 3 4 6 8 10 10 10 10 9 10 12 15 15 13 12 14 15 18 19 12 6 6 9 7 16 16 16 14 13 13 13 10 10 12 10 9 9 9 8 8
1 2 3 2 2 2 2 2 3 2 1 1 1 2 3 4 8 8 9 11 12 12 11 11 13 16 17 16 15 13 12 18 19 19 13 7 6 9 13 17 16 15 14 15 15 17 13 10 7 7 8 8 7 7
2 2 3 1 2 2 4 2 1 1 2 2 2 1 3 2 3 4 3 3 5 8 12 13 14 17 18 18 15 15 9 9 14 19 19 16 10 7 10 16 18 17 16 15 16 17 13 10 9 9 9 9 8 8
2 2 2 2 3 3 2 2 3 4 2 1 2 2 2 2 5 4 4 6 5 6 7 10 14 12 13 9 15 16 12 13 7 9 15 18 17 14 11 16 20 19 18 16 15 14 13 11 10 9 9 9 8 8
Wind_Direction
200 194 191 187 184 182 183 186 192 193 190 191 193 198 200 188 205 207 175 173 182 221 236 199 204 183 198 220 295 347 273 42 354 25 358 6 303 2 295 320 348 336 341 351 330 344 356 8 355 25 320 317 320 324
199 192 191 186 183 181 178 182 191 196 195 197 198 200 202 216 205 217 195 190 194 204 304 216 233 252 248 255 256 258 358 279 7 331 347 306 308 287 337 317 109 320 21 305 295 319 336 339 314 338 335 326 325 321
202 191 189 184 181 179 176 177 191 192 193 196 199 199 200 206 200 214 211 172 152 3 276 275 116 311 290 236 215 266 200 152 155 318 289 288 272 312 302 311 299 133 113 262 317 79 318 320 322 339 332 329 322 319
192 186 185 182 178 176 173 178 190 187 192 195 195 191 191 186 206 215 177 169 175 101 238 122 15 329 306 218 198 218 170 114 59 285 226 260 272 14 284 326 275 5 305 320 267 308 327 150 342 331 327 324 323 332
186 183 182 178 173 171 171 176 180 185 188 188 184 179 175 169 196 170 144 143 165 198 227 271 326 3 26 59 221 225 182 133 170 195 201 235 256 272 318 291 246 2 325 299 295 328 302 292 313 317 319 323 333 341
179 177 177 173 168 166 167 175 174 179 177 176 172 165 160 167 159 148 97 165 157 114 115 156 353 320 352 346 324 185 164 119 163 210 188 187 351 267 266 268 161 225 257 260 272 301 298 289 299 305 323 329 336 347
174 172 172 164 164 162 166 168 172 169 166 164 158 154 154 153 158 85 88 146 159 125 94 358 320 30 345 328 120 149 141 124 239 131 214 170 162 285 237 256 151 284 292 286 277 287 293 315 313 318 324 334 342 350
168 168 163 159 159 161 164 167 162 158 161 155 151 146 140 133 119 92 82 146 156 102 54 111 269 280 10 337 336 355 190 185 79 123 154 215 153 236 249 254 287 300 309 295 268 299 279 288 301 324 339 347 358 360
165 160 155 157 158 160 163 157 157 158 152 145 141 136 130 133 103 123 102 103 119 88 111 74 49 264 350 20 273 275 296 234 101 236 183 237 185 230 194 271 302 310 295 291 307 305 307 313 327 341 347 352 2 357
159 156 154 156 157 160 153 155 154 150 141 143 132 134 128 136 129 147 114 41 31 358 32 92 158 279 332 359 359 312 273 324 260 90 130 241 266 290 242 241 275 291 295 301 309 329 335 335 341 343 345 349 357 353
155 153 154 156 158 152 156 154 151 147 147 151 122 89 121 135 141 42 77 41 347 62 30 59 349 315 48 322 318 315 318 351 272 109 267 264 258 218 288 299 300 309 315 311 293 286 297 307 328 346 355 4 6 8
151 152 153 156 154 157 156 157 155 156 159 174 131 115 126 55 69 110 33 296 253 180 154 191 47 283 316 281 267 281 270 333 256 97 251 252 225 246 300 295 312 346 344 339 345 343 357 9 6 3 7 9 9 17
150 151 154 153 157 157 159 158 164 167 136 128 86 81 90 7 113 185 189 196 226 180 181 174 268 284 253 231 259 276 254 238 59 229 246 246 159 267 271 284 320 12 6 1 360 17 23 21 29 27 17 22 28 30
148 151 152 152 153 156 157 157 169 153 124 104 139 152 199 176 244 178 160 135 119 128 146 157 222 247 299 258 260 250 253 251 249 239 237 182 196 236 271 271 343 14 10 357 358 12 20 21 25 33 35 31 35 36
146 147 151 149 153 151 152 152 163 156 105 111 133 193 188 100 45 60 74 133 164 138 142 144 138 287 266 270 243 300 249 245 229 238 240 169 190 203 248 227 81 53 21 9 0 18 18 20 35 38 34 40 44 43
143 142 142 145 147 149 147 153 150 106 66 94 86 120 109 123 136 182 182 152 161 140 111 62 103 86 247 238 229 223 209 233 209 217 186 170 177 185 235 222 128 88 55 27 10 21 26 31 34 37 45 49 51 55
141 131 142 139 138 139 144 136 125 57 108 105 125 121 112 73 134 153 165 166 161 149 150 147 158 212 50 240 246 203 224 252 204 185 185 201 178 190 221 226 162 118 104 71 29 34 41 36 51 48 44 41 58 68
128 140 142 145 145 135 106 74 95 89 92 127 194 162 117 88 116 130 146 153 154 160 159 204 120 187 213 216 230 231 220 235 211 186 176 171 161 171 207 206 165 133 123 91 61 47 52 55 53 40 46 58 71 72
139 142 150 153 143 115 101 63 41 108 97 115 109 62 83 100 51 125 138 154 119 105 123 118 178 218 226 212 230 207 212 196 195 197 196 185 185 180 191 179 159 140 121 108 104 87 75 72 63 48 53 74 70 63
134 134 142 155 145 100 93 57 46 102 134 135 100 111 84 92 119 123 132 146 153 137 146 211 221 219 210 210 201 198 206 192 168 184 205 194 193 191 200 201 190 157 135 135 145 151 129 99 84 78 67 73 81 64
129 134 146 141 80 62 77 52 68 69 121 99 75 93 94 33 114 160 153 149 154 216 237 227 231 239 220 216 195 210 218 185 201 215 201 180 184 191 192 192 183 169 163 168 163 146 148 181 152 106 108 99 99 96
131 136 118 84 85 72 80 31 87 76 77 101 105 43 124 175 177 193 141 176 232 233 210 201 222 214 207 216 219 220 227 210 211 220 213 162 163 177 190 192 182 180 175 178 182 161 164 193 156 146 137 132 125 115
127 124 78 67 83 45 40 24 90 8 111 173 78 104 213 196 207 355 248 229 258 241 227 221 230 216 219 219 213 220 219 205 193 198 197 182 187 187 182 187 197 185 181 183 180 171 152 133 135 170 159 156 146 132
120 61 57 63 52 116 66 44 52 82 76 110 138 209 225 189 44 79 253 251 245 226 206 210 190 158 171 201 217 217 213 202 191 187 192 177 171 183 190 191 192 200 201 182 175 175 172 149 156 162 153 152 149 137
83 1 63 42 22 97 86 68 17 84 148 194 108 276 213 69 186 234 242 265 237 234 211 191 195 205 200 220 228 216 210 201 190 183 196 195 181 166 173 185 196 202 190 182 177 178 180 170 167 163 157 157 152 142
78 332 59 176 311 125 165 130 182 183 135 143 216 60 71 135 170 243 230 229 237 222 198 191 187 195 217 221 216 207 214 205 196 190 202 200 198 191 185 185 195 214 203 199 190 184 181 179 182 166 156 157 156 150
105 252 13 21 95 112 88 64 76 132 150 189 175 152 130 205 247 251 268 231 240 269 259 220 207 200 201 209 222 231 214 195 193 199 216 207 205 206 213 203 208 218 200 195 191 192 184 184 183 176 172 171 170 162
120 155 152 184 89 6 129 101 139 192 205 182 129 191 189 202 241 236 227 282 249 280 281 222 213 222 227 240 225 200 178 180 184 179 170 181 194 202 205 207 211 202 184 184 183 179 181 184 182 181 180 177 173 167
91 30 151 58 53 52 175 166 197 208 154 159 179 234 240 236 256 251 267 267 273 252 240 210 206 209 221 230 214 205 196 184 167 164 192 199 199 219 207 204 187 187 179 168 164 168 183 178 175 172 171 172 169 164
324 358 91 71 124 211 230 171 206 259 242 238 277 298 276 266 267 270 264 258 250 245 250 243 224 204 204 200 200 202 208 208 207 202 192 208 226 228 203 196 190 187 183 177 173 169 154 149 144 153 164 168 170 169
57 67 70 69 201 250 236 316 293 270 324 321 288 223 264 305 301 281 269 262 252 245 241 236 228 221 220 217 209 205 222 221 220 219 219 224 214 206 200 198 194 191 188 185 179 174 180 192 200 189 186 184 181 187
32 95 130 87 292 291 20 51 10 36 329 356 282 278 305 320 277 273 235 252 252 239 240 237 232 234 232 232 236 234 240 241 228 221 216 214 208 202 200 196 194 195 193 191 193 200 210 212 205 201 201 201 203 205
55 55 49 56 10 359 325 56 21 341 349 299 266 224 232 235 251 287 277 248 258 281 268 243 235 237 229 234 233 235 235 232 232 220 216 219 220 220 217 201 195 195 194 193 193 194 196 197 199 202 205 207 210 213
Height
802 809 817 824 831 838 845 851 856 859 860 862 864 865 865 866 867 868 868 869 871 870 869 871 871 872 873 873 871 867 866 863 860 860 858 860 854 853 856 843 850 852 847 827 819 812 807 826 819 822 833 823 815 806
794 802 810 818 825 833 841 846 852 856 859 860 862 863 864 865 865 866 867 867 868 870 870 869 869 869 870 870 870 873 871 872 868 866 867 862 856 860 864 841 857 847 861 854 849 827 831 834 835 833 831 826 816 810
784 794 803 812 821 828 835 842 848 852 855 858 860 861 862 863 862 863 864 865 868 869 869 867 866 868 867 867 869 869 872 872 871 873 870 865 865 859 850 842 857 863 871 862 856 843 842 838 838 835 831 826 818 809
775 785 795 805 814 822 830 839 845 849 853 856 858 859 860 861 861 862 863 864 866 870 868 866 865 866 866 866 866 868 869 871 872 873 871 869 866 869 858 865 865 867 870 865 853 845 841 834 837 838 833 825 817 808
767 776 790 799 808 817 827 836 842 847 851 854 856 858 859 860 860 862 864 865 866 868 864 864 866 866 866 865 867 868 868 871 872 872 871 866 871 871 874 874 867 869 869 861 846 853 858 847 841 838 833 824 816 809
763 773 787 796 804 814 824 833 839 844 848 852 855 857 858 859 861 862 865 867 867 867 866 864 868 867 866 865 865 866 867 870 871 868 869 876 882 875 869 865 870 872 871 869 862 859 857 849 845 839 833 824 817 813
761 772 784 793 803 812 822 830 837 842 846 849 853 855 858 860 861 863 865 866 867 867 867 867 866 867 866 866 866 866 868 869 869 872 870 869 874 874 870 862 869 869 869 866 863 861 850 843 840 836 830 824 820 815
763 772 781 791 802 812 821 829 834 839 843 846 850 854 857 861 863 864 865 867 867 867 868 871 866 866 869 865 863 867 864 866 869 870 877 870 877 876 869 868 872 869 865 859 859 858 853 846 840 834 830 826 821 817
763 772 781 792 802 811 820 826 832 837 841 844 850 854 858 861 863 865 866 866 866 870 869 874 869 863 871 868 868 865 865 860 870 866 868 871 869 863 862 868 868 867 865 861 857 854 849 845 840 835 831 826 822 820
761 772 783 794 804 812 819 826 831 836 840 844 848 853 858 861 863 866 866 867 868 874 875 876 880 870 875 869 865 867 862 858 859 865 872 869 859 869 870 869 867 864 861 858 855 850 847 844 841 837 834 830 826 822
760 773 785 795 804 811 819 825 830 836 841 845 850 855 860 862 864 867 871 870 879 876 879 882 884 877 878 872 868 870 864 864 860 864 864 863 855 862 867 866 863 861 858 856 853 851 849 846 842 838 835 831 828 825
763 776 786 796 803 811 817 823 830 834 839 843 848 854 861 865 867 866 880 884 877 871 880 878 882 883 879 879 873 869 865 868 858 869 866 854 855 865 866 864 861 859 856 854 852 850 848 845 842 840 837 834 831 828
769 778 788 796 805 812 818 824 829 834 838 844 847 855 858 869 864 858 864 870 874 878 880 882 880 881 878 878 874 871 866 860 865 864 852 848 862 864 864 863 860 858 856 854 853 851 848 846 844 842 840 837 834 831
772 783 790 798 806 813 819 825 830 834 837 842 848 856 858 859 860 860 859 864 875 876 879 882 881 880 876 875 870 866 864 866 864 862 844 852 860 863 862 861 859 858 857 856 854 852 850 848 846 845 842 840 837 833
776 786 795 801 808 814 820 826 831 835 838 844 846 843 860 867 876 876 877 875 877 877 877 878 880 880 877 876 870 870 867 860 850 839 846 855 860 860 860 860 858 857 858 857 856 854 853 851 848 846 844 841 838 837
777 790 796 803 810 816 822 825 832 836 842 846 856 858 866 862 872 876 877 874 876 877 879 880 885 882 879 875 873 866 864 850 842 851 854 857 857 858 858 859 858 857 857 857 857 855 854 852 850 849 846 844 843 842
777 786 796 805 812 818 824 827 832 840 842 846 855 855 855 857 857 865 870 871 874 874 875 881 883 871 877 877 872 862 854 847 852 854 855 855 855 857 858 858 857 857 857 857 857 856 854 853 851 850 849 848 848 847
780 791 799 804 810 819 823 827 834 839 845 855 851 853 853 858 863 865 867 870 872 872 874 877 877 879 872 869 853 852 855 856 855 855 855 855 856 856 857 858 857 856 857 855 855 855 855 854 854 854 853 853 852 850
782 793 801 808 811 814 825 834 834 841 853 854 856 857 855 859 864 864 866 869 870 871 875 878 881 873 858 856 851 852 854 852 854 856 856 856 855 856 857 857 857 856 856 856 857 858 858 857 857 856 856 855 854 853
792 798 805 809 812 816 828 837 838 841 847 852 855 856 859 862 866 867 866 868 869 872 877 875 862 850 849 847 848 848 848 850 852 855 854 854 855 855 856 857 857 856 856 858 858 859 859 859 859 858 857 857 856 855
795 803 808 811 814 819 833 841 845 850 852 854 862 860 863 867 867 867 867 868 870 869 861 852 848 845 846 845 845 846 847 848 849 850 849 851 853 854 855 856 856 856 856 858 859 859 860 860 859 858 857 857 857 857
800 806 809 813 818 827 838 846 848 852 855 862 863 865 866 866 867 868 868 868 863 849 847 844 843 842 843 843 842 843 844 845 847 848 848 848 851 853 854 855 856 856 857 858 858 858 860 860 859 858 858 858 858 858
802 806 811 814 822 831 852 849 850 859 855 862 868 866 869 870 870 869 868 861 849 840 838 839 839 839 839 839 840 841 842 843 845 845 846 847 849 851 852 854 855 856 856 857 857 858 859 858 858 858 858 859 859 859
803 809 820 826 829 844 851 854 856 859 864 865 868 865 868 868 870 870 861 849 837 836 836 836 837 837 838 838 839 839 840 841 842 843 844 846 848 850 852 853 854 855 855 855 856 856 857 858 858 858 858 859 860 860
808 826 828 836 844 843 849 855 862 857 859 878 870 865 870 873 869 870 855 837 834 831 831 832 834 835 836 836 837 837 838 839 840 841 843 844 846 849 851 852 852 853 853 854 854 856 857 857 858 859 859 859 860 861
820 836 832 841 844 837 845 848 856 855 865 873 868 874 875 869 870 849 838 830 828 827 826 827 829 832 833 833 834 835 835 836 838 840 841 842 843 845 847 850 851 851 851 853 854 855 855 856 858 858 859 860 860 860
830 837 837 836 837 840 844 850 852 853 865 858 862 869 867 862 854 833 827 825 825 823 823 824 826 827 828 830 831 832 833 834 836 837 838 839 842 844 846 847 848 849 849 851 852 853 854 855 857 857 858 859 860 860
834 837 834 842 842 846 845 852 858 855 852 853 855 859 855 845 832 826 824 823 823 822 822 822 824 826 827 828 829 830 832 833 835 836 837 839 840 842 844 845 846 847 848 849 851 852 853 854 855 856 857 858 859 860
837 837 836 847 851 850 850 846 845 846 846 847 848 844 840 832 826 823 822 822 822 821 821 822 823 824 826 827 828 829 830 831 833 835 836 837 839 840 841 842 844 845 847 848 850 852 853 853 854 855 856 857 858 859
841 841 844 856 845 841 845 846 848 848 847 847 846 842 837 829 822 821 820 820 820 819 819 820 821 822 823 824 826 827 828 829 830 832 833 834 834 835 836 838 841 843 845 847 849 851 853 853 854 855 856 857 858 858
843 844 846 850 847 849 849 848 848 848 847 846 846 845 839 832 820 816 815 815 815 816 816 817 818 819 821 822 823 824 825 826 827 829 830 832 832 833 834 836 839 841 844 846 848 850 851 853 854 854 855 856 857 858
844 850 848 840 846 850 848 851 852 851 850 849 846 846 840 837 831 816 813 812 812 811 812 813 814 815 817 818 820 821 822 822 823 824 827 829 830 831 833 835 837 840 842 844 846 849 850 851 851 852 853 854 855 856
855 855 857 853 850 849 851 851 852 851 852 850 845 843 842 838 830 815 811 810 811 810 809 809 810 812 813 814 815 817 819 820 820 821 822 825 827 829 831 832 835 837 840 842 844 846 847 849 850 850 851 852 853 854